Location: Mitty Observatory
(35.9148°N, 88.8847°W)
Time: 14:47:18
(UTC-06:00)

LightSail 2 - Pass Details

Date: 16 November 2019
Orbit: 696 x 730 km, 24.0° (Epoch: 13 December)

Event Time Altitude Azimuth Distance (km) Brightness Sun altitude
Exits shadow 04:34:55 19° 200° (SSW) 1,679 6.9 -23.8°
Maximum altitude 04:35:42 20° 188° (S) 1,651 7.0 -23.7°
Drops below altitude 10° 04:39:25 10° 142° (SE) 2,211 8.3 -22.9°
Sets 04:42:28 0° 125° (SE) 3,133 9.5 -22.3°
